| time (UTC) | temp C | wind direction | speed KPH | gust KPH | rain 1hr cm | rain 24hr cm | rain mn cm | humidity % | barometer mb |
| 20260906044659 | 26 | 337 | 0.0 | 1.6 | 0.00 | 0.00 | 0.00 | 49 | 1013.1 |
| 20260906044154 | 26 | 342 | 0.0 | 0.0 | 0.00 | 0.00 | 0.00 | 50 | 1013.1 |
| 20260906043650 | 26 | 342 | 0.0 | 0.0 | 0.00 | 0.00 | 0.00 | 49 | 1013.0 |
| 20260906043145 | 26 | 342 | 1.6 | 3.2 | 0.00 | 0.00 | 0.00 | 48 | 1012.7 |
| 20260906042645 | 26 | 14 | 0.0 | 0.0 | 0.00 | 0.00 | 0.00 | 48 | 1013.1 |
| 20260906042139 | 27 | 10 | 4.8 | 4.8 | 0.00 | 0.00 | 0.00 | 48 | 1013.1 |
| 20260906041635 | 27 | 345 | 0.0 | 0.0 | 0.00 | 0.00 | 0.00 | 48 | 1012.9 |
| 20260906041130 | 27 | 0 | 0.0 | 1.6 | 0.00 | 0.00 | 0.00 | 47 | 1013.0 |
| 20260906040626 | 27 | 352 | 0.0 | 0.0 | 0.00 | 0.00 | 0.00 | 47 | 1013.1 |
| 20260906040121 | 27 | 331 | 1.6 | 1.6 | 0.00 | 0.00 | 0.00 | 48 | 1012.9 |
| 20260906035616 | 27 | 240 | 0.0 | 0.0 | 0.00 | 0.00 | 0.00 | 47 | 1012.9 |
| 20260906035112 | 27 | 240 | 0.0 | 0.0 | 0.00 | 0.00 | 0.00 | 47 | 1012.7 |
| 20260906034612 | 27 | 240 | 0.0 | 3.2 | 0.00 | 0.00 | 0.00 | 47 | 1012.6 |
| 20260906034107 | 28 | 200 | 0.0 | 3.2 | 0.00 | 0.00 | 0.00 | 46 | 1012.5 |
| 20260906033603 | 28 | 232 | 0.0 | 3.2 | 0.00 | 0.00 | 0.00 | 46 | 1012.7 |
| 20260906033057 | 28 | 246 | 0.0 | 0.0 | 0.00 | 0.00 | 0.00 | 46 | 1012.7 |
| 20260906032554 | 28 | 154 | 0.0 | 0.0 | 0.00 | 0.00 | 0.00 | 46 | 1012.6 |
| 20260906032053 | 28 | 154 | 0.0 | 0.0 | 0.00 | 0.00 | 0.00 | 47 | 1012.4 |
| 20260906031549 | 28 | 154 | 0.0 | 0.0 | 0.00 | 0.00 | 0.00 | 47 | 1012.4 |
| 20260906031045 | 28 | 154 | 0.0 | 0.0 | 0.00 | 0.00 | 0.00 | 46 | 1012.3 |
| 20260906030543 | 28 | 106 | 0.0 | 0.0 | 0.00 | 0.00 | 0.00 | 47 | 1012.3 |
| 20260906030043 | 28 | 81 | 0.0 | 0.0 | 0.00 | 0.00 | 0.00 | 47 | 1012.2 |
| 20260906025538 | 28 | 81 | 0.0 | 0.0 | 0.00 | 0.00 | 0.00 | 47 | 1011.9 |
| 20260906025036 | 28 | 29 | 1.6 | 3.2 | 0.00 | 0.00 | 0.00 | 47 | 1011.6 |
| 20260906024531 | 28 | 90 | 0.0 | 3.2 | 0.00 | 0.00 | 0.00 | 47 | 1011.9 |
| 20260906024025 | 28 | 8 | 0.0 | 1.6 | 0.00 | 0.00 | 0.00 | 47 | 1011.5 |
| 20260906023522 | 28 | 45 | 3.2 | 4.8 | 0.00 | 0.00 | 0.00 | 47 | 1011.2 |
| 20260906023016 | 28 | 58 | 4.8 | 4.8 | 0.00 | 0.00 | 0.00 | 47 | 1010.9 |
| 20260906022511 | 28 | 32 | 0.0 | 3.2 | 0.00 | 0.00 | 0.00 | 46 | 1011.0 |
| 20260906022007 | 28 | 12 | 1.6 | 3.2 | 0.00 | 0.00 | 0.00 | 46 | 1011.0 |
| 20260906021502 | 28 | 23 | 3.2 | 4.8 | 0.00 | 0.00 | 0.00 | 46 | 1010.9 |
| 20260906020956 | 28 | 53 | 3.2 | 4.8 | 0.00 | 0.00 | 0.00 | 46 | 1011.0 |
| 20260906020445 | 29 | 54 | 1.6 | 3.2 | 0.00 | 0.00 | 0.00 | 45 | 1011.0 |
| 20260906015944 | 29 | 63 | 0.0 | 1.6 | 0.00 | 0.00 | 0.00 | 45 | 1010.8 |
| 20260906015444 | 29 | 74 | 0.0 | 0.0 | 0.00 | 0.00 | 0.00 | 44 | 1010.9 |
| 20260906014944 | 30 | 82 | 0.0 | 3.2 | 0.00 | 0.00 | 0.00 | 44 | 1010.7 |
| 20260906014438 | 30 | 23 | 0.0 | 1.6 | 0.00 | 0.00 | 0.00 | 44 | 1010.4 |
| 20260906013934 | 30 | 342 | 3.2 | 6.4 | 0.00 | 0.00 | 0.00 | 43 | 1010.3 |
| 20260906013430 | 30 | 12 | 3.2 | 8.0 | 0.00 | 0.00 | 0.00 | 43 | 1010.7 |
| 20260906012926 | 30 | 3 | 8.0 | 8.0 | 0.00 | 0.00 | 0.00 | 43 | 1010.2 |
| 20260906012425 | 31 | 3 | 3.2 | 8.0 | 0.00 | 0.00 | 0.00 | 42 | 1010.6 |
| 20260906011924 | 31 | 15 | 4.8 | 4.8 | 0.00 | 0.00 | 0.00 | 42 | 1010.4 |
| 20260906011420 | 31 | 337 | 0.0 | 4.8 | 0.00 | 0.00 | 0.00 | 41 | 1010.4 |
| 20260906010916 | 31 | 0 | 0.0 | 3.2 | 0.00 | 0.00 | 0.00 | 40 | 1010.3 |
| 20260906010411 | 31 | 337 | 0.0 | 3.2 | 0.00 | 0.00 | 0.00 | 40 | 1010.2 |
| 20260906005907 | 31 | 8 | 1.6 | 8.0 | 0.00 | 0.00 | 0.00 | 40 | 1010.2 |
| 20260906005406 | 32 | 262 | 0.0 | 4.8 | 0.00 | 0.00 | 0.00 | 40 | 1010.2 |
| 20260906004904 | 31 | 338 | 3.2 | 4.8 | 0.00 | 0.00 | 0.00 | 40 | 1010.2 |
| 20260906004359 | 32 | 270 | 0.0 | 4.8 | 0.00 | 0.00 | 0.00 | 40 | 1010.2 |
| 20260906003855 | 32 | 350 | 3.2 | 6.4 | 0.00 | 0.00 | 0.00 | 40 | 1010.3 |
| 20260906003350 | 32 | 279 | 3.2 | 6.4 | 0.00 | 0.00 | 0.00 | 39 | 1010.2 |
| 20260906002846 | 33 | 342 | 0.0 | 4.8 | 0.00 | 0.00 | 0.00 | 38 | 1010.1 |
| 20260906002344 | 33 | 328 | 0.0 | 6.4 | 0.00 | 0.00 | 0.00 | 35 | 1010.1 |
| 20260906001840 | 33 | 298 | 4.8 | 6.4 | 0.00 | 0.00 | 0.00 | 35 | 1010.4 |
| 20260906001336 | 33 | 81 | 1.6 | 4.8 | 0.00 | 0.00 | 0.00 | 35 | 1010.1 |
| 20260906000831 | 33 | 35 | 0.0 | 4.8 | 0.00 | 0.00 | 0.00 | 35 | 1010.3 |
| 20260906000326 | 33 | 8 | 3.2 | 8.0 | 0.00 | 0.00 | 0.00 | 35 | 1010.3 |
| 20260905235825 | 33 | 307 | 6.4 | 12.9 | 0.00 | 0.00 | 0.00 | 35 | 1009.9 |
| 20260905235320 | 34 | 343 | 11.3 | 11.3 | 0.00 | 0.00 | 0.00 | 34 | 1010.1 |
| 20260905234815 | 34 | 355 | 0.0 | 4.8 | 0.00 | 0.00 | 0.00 | 34 | 1010.1 |
| 20260905234311 | 34 | 148 | 0.0 | 3.2 | 0.00 | 0.00 | 0.00 | 34 | 1009.9 |
| 20260905233805 | 35 | 342 | 3.2 | 6.4 | 0.00 | 0.00 | 0.00 | 33 | 1009.8 |
| 20260905233300 | 35 | 293 | 4.8 | 11.3 | 0.00 | 0.00 | 0.00 | 33 | 1009.9 |
| 20260905232759 | 35 | 220 | 3.2 | 8.0 | 0.00 | 0.00 | 0.00 | 32 | 1009.9 |
| 20260905232255 | 35 | 75 | 1.6 | 3.2 | 0.00 | 0.00 | 0.00 | 32 | 1009.9 |
| 20260905231751 | 35 | 0 | 0.0 | 3.2 | 0.00 | 0.00 | 0.00 | 32 | 1009.2 |
| 20260905231246 | 35 | 63 | 3.2 | 8.0 | 0.00 | 0.00 | 0.00 | 31 | 1009.6 |
| 20260905230742 | 35 | 312 | 0.0 | 9.7 | 0.00 | 0.00 | 0.00 | 31 | 1009.6 |
| 20260905230239 | 36 | 324 | 4.8 | 8.0 | 0.00 | 0.00 | 0.00 | 30 | 1009.7 |
| 20260905225734 | 36 | 334 | 0.0 | 9.7 | 0.00 | 0.00 | 0.00 | 30 | 1009.8 |
| 20260905225229 | 36 | 247 | 0.0 | 4.8 | 0.00 | 0.00 | 0.00 | 30 | 1009.5 |
| 20260905224728 | 36 | 186 | 0.0 | 8.0 | 0.00 | 0.00 | 0.00 | 31 | 1009.5 |
| 20260905224224 | 36 | 341 | 0.0 | 6.4 | 0.00 | 0.00 | 0.00 | 30 | 1009.8 |
| 20260905223720 | 37 | 73 | 0.0 | 4.8 | 0.00 | 0.00 | 0.00 | 30 | 1009.6 |
| 20260905223217 | 36 | 90 | 1.6 | 12.9 | 0.00 | 0.00 | 0.00 | 30 | 1009.8 |
| 20260905222712 | 36 | 294 | 4.8 | 4.8 | 0.00 | 0.00 | 0.00 | 28 | 1009.5 |
| 20260905222211 | 37 | 241 | 9.7 | 12.9 | 0.00 | 0.00 | 0.00 | 28 | 1009.7 |
| 20260905221707 | 37 | 90 | 0.0 | 1.6 | 0.00 | 0.00 | 0.00 | 28 | 1009.8 |
| 20260905221204 | 36 | 266 | 3.2 | 14.5 | 0.00 | 0.00 | 0.00 | 28 | 1009.6 |
| 20260905220659 | 37 | 255 | 0.0 | 9.7 | 0.00 | 0.00 | 0.00 | 27 | 1009.8 |
| 20260905220155 | 37 | 270 | 0.0 | 4.8 | 0.00 | 0.00 | 0.00 | 28 | 1009.8 |
| 20260905215654 | 37 | 251 | 3.2 | 6.4 | 0.00 | 0.00 | 0.00 | 28 | 1009.8 |
| 20260905215150 | 37 | 171 | 3.2 | 19.3 | 0.00 | 0.00 | 0.00 | 28 | 1009.9 |
| 20260905214646 | 37 | 99 | 4.8 | 8.0 | 0.00 | 0.00 | 0.00 | 27 | 1009.8 |
| 20260905214141 | 38 | 192 | 0.0 | 11.3 | 0.00 | 0.00 | 0.00 | 27 | 1010.1 |
| 20260905213637 | 37 | 232 | 3.2 | 12.9 | 0.00 | 0.00 | 0.00 | 28 | 1009.9 |
| 20260905213132 | 37 | 17 | 0.0 | 8.0 | 0.00 | 0.00 | 0.00 | 28 | 1010.0 |
| 20260905212627 | 37 | 230 | 0.0 | 24.1 | 0.00 | 0.00 | 0.00 | 28 | 1010.1 |
| 20260905212126 | 37 | 222 | 4.8 | 25.7 | 0.00 | 0.00 | 0.00 | 28 | 1010.4 |
| 20260905211621 | 37 | 318 | 16.1 | 24.1 | 0.00 | 0.00 | 0.00 | 28 | 1010.3 |
| 20260905211117 | 37 | 18 | 0.0 | 20.9 | 0.00 | 0.00 | 0.00 | 28 | 1010.6 |
| 20260905210613 | 37 | 82 | 4.8 | 24.1 | 0.00 | 0.00 | 0.00 | 27 | 1010.6 |
| 20260905210108 | 37 | 294 | 8.0 | 32.2 | 0.00 | 0.00 | 0.00 | 28 | 1010.6 |
| 20260905205607 | 37 | 256 | 6.4 | 25.7 | 0.00 | 0.00 | 0.00 | 29 | 1010.6 |
| 20260905205107 | 38 | 215 | 14.5 | 14.5 | 0.00 | 0.00 | 0.00 | 28 | 1010.8 |
| 20260905204606 | 38 | 297 | 3.2 | 11.3 | 0.00 | 0.00 | 0.00 | 28 | 1010.9 |
| 20260905204101 | 37 | 239 | 9.7 | 17.7 | 0.00 | 0.00 | 0.00 | 29 | 1010.6 |
| 20260905203556 | 38 | 264 | 3.2 | 11.3 | 0.00 | 0.00 | 0.00 | 28 | 1010.6 |
| 20260905203052 | 38 | 190 | 4.8 | 16.1 | 0.00 | 0.00 | 0.00 | 28 | 1010.7 |
| 20260905202547 | 37 | 196 | 4.8 | 17.7 | 0.00 | 0.00 | 0.00 | 29 | 1011.0 |
| 20260905202042 | 37 | 304 | 0.0 | 11.3 | 0.00 | 0.00 | 0.00 | 29 | 1010.9 |
| 20260905201538 | 37 | 315 | 0.0 | 29.0 | 0.00 | 0.00 | 0.00 | 30 | 1011.0 |
| 20260905201037 | 37 | 252 | 3.2 | 20.9 | 0.00 | 0.00 | 0.00 | 31 | 1010.9 |
| 20260905200533 | 37 | 251 | 6.4 | 9.7 | 0.00 | 0.00 | 0.00 | 27 | 1011.3 |
| 20260905200032 | 38 | 219 | 6.4 | 6.4 | 0.00 | 0.00 | 0.00 | 27 | 1011.2 |
| 20260905195526 | 36 | 167 | 4.8 | 11.3 | 0.00 | 0.00 | 0.00 | 29 | 1011.2 |
| 20260905195022 | 37 | 199 | 8.0 | 12.9 | 0.00 | 0.00 | 0.00 | 28 | 1011.4 |
| 20260905194521 | 37 | 170 | 12.9 | 12.9 | 0.00 | 0.00 | 0.00 | 28 | 1011.4 |
| 20260905194015 | 37 | 205 | 8.0 | 8.0 | 0.00 | 0.00 | 0.00 | 28 | 1011.8 |
| 20260905193510 | 37 | 270 | 0.0 | 9.7 | 0.00 | 0.00 | 0.00 | 30 | 1011.5 |
| 20260905193006 | 36 | 194 | 6.4 | 14.5 | 0.00 | 0.00 | 0.00 | 31 | 1011.3 |
| 20260905192501 | 37 | 124 | 3.2 | 6.4 | 0.00 | 0.00 | 0.00 | 30 | 1011.5 |
| 20260905191957 | 37 | 154 | 6.4 | 6.4 | 0.00 | 0.00 | 0.00 | 29 | 1011.5 |
| 20260905191455 | 37 | 105 | 0.0 | 12.9 | 0.00 | 0.00 | 0.00 | 30 | 1011.6 |
| 20260905190954 | 37 | 54 | 0.0 | 3.2 | 0.00 | 0.00 | 0.00 | 30 | 1011.6 |
| 20260905190452 | 36 | 29 | 1.6 | 9.7 | 0.00 | 0.00 | 0.00 | 31 | 1011.9 |
| 20260905185951 | 36 | 60 | 6.4 | 14.5 | 0.00 | 0.00 | 0.00 | 31 | 1012.1 |
| 20260905185447 | 37 | 68 | 6.4 | 8.0 | 0.00 | 0.00 | 0.00 | 31 | 1012.1 |
| 20260905184945 | 36 | 39 | 4.8 | 4.8 | 0.00 | 0.00 | 0.00 | 31 | 1012.0 |
| 20260905184440 | 35 | 46 | 6.4 | 12.9 | 0.00 | 0.00 | 0.00 | 33 | 1012.2 |
| 20260905183939 | 35 | 353 | 6.4 | 12.9 | 0.00 | 0.00 | 0.00 | 34 | 1012.4 |
| 20260905183433 | 36 | 115 | 8.0 | 11.3 | 0.00 | 0.00 | 0.00 | 33 | 1012.3 |
| 20260905182929 | 35 | 110 | 4.8 | 12.9 | 0.00 | 0.00 | 0.00 | 33 | 1012.5 |
| 20260905182428 | 35 | 270 | 0.0 | 3.2 | 0.00 | 0.00 | 0.00 | 34 | 1012.3 |
| 20260905181924 | 35 | 78 | 0.0 | 4.8 | 0.00 | 0.00 | 0.00 | 34 | 1012.6 |
| 20260905181418 | 35 | 90 | 1.6 | 4.8 | 0.00 | 0.00 | 0.00 | 34 | 1012.6 |
| 20260905180917 | 35 | 344 | 6.4 | 9.7 | 0.00 | 0.00 | 0.00 | 35 | 1012.7 |
| 20260905180413 | 34 | 35 | 6.4 | 9.7 | 0.00 | 0.00 | 0.00 | 36 | 1012.9 |
| 20260905175913 | 35 | 4 | 3.2 | 4.8 | 0.00 | 0.00 | 0.00 | 35 | 1013.0 |
| 20260905175412 | 35 | 42 | 9.7 | 9.7 | 0.00 | 0.00 | 0.00 | 35 | 1013.0 |
| 20260905174907 | 35 | 151 | 1.6 | 6.4 | 0.00 | 0.00 | 0.00 | 35 | 1013.0 |
| 20260905174403 | 33 | 346 | 0.0 | 11.3 | 0.00 | 0.00 | 0.00 | 37 | 1013.2 |
| 20260905173858 | 34 | 6 | 1.6 | 4.8 | 0.00 | 0.00 | 0.00 | 35 | 1013.2 |
| 20260905173355 | 33 | 339 | 8.0 | 11.3 | 0.00 | 0.00 | 0.00 | 37 | 1013.3 |
| 20260905172849 | 34 | 30 | 0.0 | 8.0 | 0.00 | 0.00 | 0.00 | 36 | 1013.1 |
| 20260905172347 | 34 | 104 | 8.0 | 9.7 | 0.00 | 0.00 | 0.00 | 36 | 1013.3 |
| 20260905171843 | 33 | 80 | 3.2 | 8.0 | 0.00 | 0.00 | 0.00 | 37 | 1013.2 |
| 20260905171340 | 33 | 90 | 3.2 | 4.8 | 0.00 | 0.00 | 0.00 | 37 | 1013.2 |
| 20260905170836 | 32 | 357 | 3.2 | 11.3 | 0.00 | 0.00 | 0.00 | 38 | 1013.5 |
| 20260905170332 | 32 | 11 | 8.0 | 11.3 | 0.00 | 0.00 | 0.00 | 38 | 1013.3 |
| 20260905165831 | 33 | 229 | 3.2 | 6.4 | 0.00 | 0.00 | 0.00 | 37 | 1013.5 |
| 20260905165327 | 33 | 8 | 3.2 | 4.8 | 0.00 | 0.00 | 0.00 | 37 | 1013.3 |
| 20260905164826 | 32 | 39 | 6.4 | 9.7 | 0.00 | 0.00 | 0.00 | 38 | 1013.6 |
| 20260905164321 | 33 | 294 | 3.2 | 4.8 | 0.00 | 0.00 | 0.00 | 37 | 1013.1 |
| 20260905163817 | 32 | 203 | 3.2 | 4.8 | 0.00 | 0.00 | 0.00 | 39 | 1013.6 |
| 20260905163313 | 31 | 5 | 8.0 | 8.0 | 0.00 | 0.00 | 0.00 | 40 | 1013.4 |
| 20260905162809 | 31 | 14 | 0.0 | 9.7 | 0.00 | 0.00 | 0.00 | 40 | 1013.6 |
| 20260905162309 | 30 | 17 | 4.8 | 11.3 | 0.00 | 0.00 | 0.00 | 42 | 1013.4 |
| 20260905161803 | 31 | 10 | 8.0 | 8.0 | 0.00 | 0.00 | 0.00 | 41 | 1013.8 |
| 20260905161303 | 31 | 348 | 4.8 | 6.4 | 0.00 | 0.00 | 0.00 | 41 | 1013.7 |
| 20260905160801 | 30 | 345 | 1.6 | 12.9 | 0.00 | 0.00 | 0.00 | 43 | 1013.7 |
| 20260905160255 | 30 | 38 | 4.8 | 12.9 | 0.00 | 0.00 | 0.00 | 43 | 1013.6 |
| 20260905155750 | 30 | 23 | 0.0 | 8.0 | 0.00 | 0.00 | 0.00 | 43 | 1013.9 |
| 20260905155249 | 30 | 66 | 0.0 | 6.4 | 0.00 | 0.00 | 0.00 | 44 | 1013.8 |
| 20260905154743 | 29 | 45 | 8.0 | 8.0 | 0.00 | 0.00 | 0.00 | 45 | 1013.5 |
| 20260905154239 | 29 | 32 | 4.8 | 8.0 | 0.00 | 0.00 | 0.00 | 44 | 1013.7 |
| 20260905153734 | 29 | 36 | 4.8 | 6.4 | 0.00 | 0.00 | 0.00 | 45 | 1013.8 |
| 20260905153230 | 29 | 135 | 3.2 | 6.4 | 0.00 | 0.00 | 0.00 | 45 | 1013.9 |
| 20260905152724 | 29 | 36 | 4.8 | 8.0 | 0.00 | 0.00 | 0.00 | 45 | 1013.8 |
| 20260905152219 | 29 | 54 | 6.4 | 6.4 | 0.00 | 0.00 | 0.00 | 45 | 1013.7 |
| 20260905151719 | 28 | 56 | 6.4 | 11.3 | 0.00 | 0.00 | 0.00 | 46 | 1013.8 |
| 20260905151215 | 28 | 17 | 8.0 | 8.0 | 0.00 | 0.00 | 0.00 | 47 | 1014.1 |
| 20260905150710 | 27 | 354 | 4.8 | 11.3 | 0.00 | 0.00 | 0.00 | 48 | 1013.8 |
| 20260905150209 | 27 | 11 | 4.8 | 8.0 | 0.00 | 0.00 | 0.00 | 49 | 1013.9 |
| 20260905145706 | 27 | 0 | 3.2 | 8.0 | 0.00 | 0.00 | 0.00 | 49 | 1013.9 |
| 20260905145202 | 27 | 32 | 3.2 | 6.4 | 0.00 | 0.00 | 0.00 | 51 | 1014.2 |
| 20260905144700 | 27 | 17 | 4.8 | 8.0 | 0.00 | 0.00 | 0.00 | 51 | 1014.1 |
| 20260905144155 | 26 | 2 | 6.4 | 6.4 | 0.00 | 0.00 | 0.00 | 52 | 1014.3 |
| 20260905143654 | 26 | 21 | 4.8 | 8.0 | 0.00 | 0.00 | 0.00 | 52 | 1013.9 |
| 20260905143149 | 26 | 20 | 4.8 | 8.0 | 0.00 | 0.00 | 0.00 | 53 | 1013.9 |
| 20260905142647 | 26 | 4 | 3.2 | 4.8 | 0.00 | 0.00 | 0.00 | 53 | 1013.9 |
| 20260905142147 | 26 | 3 | 4.8 | 4.8 | 0.00 | 0.00 | 0.00 | 53 | 1014.2 |
| 20260905141643 | 26 | 4 | 3.2 | 3.2 | 0.00 | 0.00 | 0.00 | 53 | 1013.9 |
| 20260905141139 | 27 | 0 | 0.0 | 3.2 | 0.00 | 0.00 | 0.00 | 51 | 1014.4 |
| 20260905140633 | 26 | 342 | 0.0 | 3.2 | 0.00 | 0.00 | 0.00 | 52 | 1014.1 |
| 20260905140133 | 26 | 90 | 1.6 | 3.2 | 0.00 | 0.00 | 0.00 | 52 | 1013.9 |
| 20260905135628 | 26 | 145 | 0.0 | 3.2 | 0.00 | 0.00 | 0.00 | 52 | 1014.2 |
| 20260905135124 | 26 | 90 | 0.0 | 1.6 | 0.00 | 0.00 | 0.00 | 53 | 1014.2 |
| 20260905134618 | 25 | 90 | 0.0 | 3.2 | 0.00 | 0.00 | 0.00 | 54 | 1014.2 |
| 20260905134117 | 24 | 106 | 3.2 | 4.8 | 0.00 | 0.00 | 0.00 | 56 | 1013.7 |
| 20260905133612 | 24 | 7 | 1.6 | 3.2 | 0.00 | 0.00 | 0.00 | 60 | 1014.1 |
| 20260905133107 | 23 | 0 | 0.0 | 6.4 | 0.00 | 0.00 | 0.00 | 61 | 1013.8 |
| 20260905132607 | 23 | 0 | 0.0 | 1.6 | 0.00 | 0.00 | 0.00 | 59 | 1013.5 |
| 20260905132101 | 22 | 106 | 0.0 | 3.2 | 0.00 | 0.00 | 0.00 | 62 | 1013.6 |
| 20260905131557 | 21 | 53 | 0.0 | 3.2 | 0.00 | 0.00 | 0.00 | 63 | 1013.6 |
| 20260905131052 | 21 | 3 | 3.2 | 4.8 | 0.00 | 0.00 | 0.00 | 64 | 1013.5 |
| 20260905130551 | 21 | 8 | 3.2 | 3.2 | 0.00 | 0.00 | 0.00 | 64 | 1013.3 |
| 20260905130046 | 21 | 48 | 3.2 | 4.8 | 0.00 | 0.00 | 0.00 | 65 | 1013.2 |
| 20260905125546 | 21 | 0 | 1.6 | 1.6 | 0.00 | 0.00 | 0.00 | 66 | 1013.2 |
| 20260905125041 | 21 | 0 | 0.0 | 3.2 | 0.00 | 0.00 | 0.00 | 65 | 1013.1 |
| 20260905124538 | 21 | 0 | 0.0 | 1.6 | 0.00 | 0.00 | 0.00 | 67 | 1013.1 |
| 20260905124033 | 21 | 82 | 0.0 | 1.6 | 0.00 | 0.00 | 0.00 | 66 | 1013.1 |
| 20260905123529 | 21 | 270 | 0.0 | 0.0 | 0.00 | 0.00 | 0.00 | 66 | 1013.0 |
| 20260905123026 | 21 | 270 | 0.0 | 0.0 | 0.00 | 0.00 | 0.00 | 66 | 1013.2 |
| 20260905122525 | 21 | 270 | 0.0 | 0.0 | 0.00 | 0.00 | 0.00 | 65 | 1013.0 |
| 20260905122020 | 21 | 345 | 0.0 | 0.0 | 0.00 | 0.00 | 0.00 | 63 | 1013.0 |
| 20260905121515 | 21 | 345 | 0.0 | 3.2 | 0.00 | 0.00 | 0.00 | 62 | 1012.7 |
| 20260905121015 | 21 | 355 | 1.6 | 4.8 | 0.00 | 0.00 | 0.00 | 62 | 1012.9 |
| 20260905120509 | 21 | 20 | 1.6 | 3.2 | 0.00 | 0.00 | 0.00 | 62 | 1013.0 |
| 20260905120004 | 21 | 40 | 3.2 | 3.2 | 0.00 | 0.00 | 0.00 | 62 | 1013.0 |
| 20260905115503 | 21 | 74 | 0.0 | 1.6 | 0.00 | 0.00 | 0.00 | 62 | 1012.7 |
| 20260905114958 | 21 | 84 | 1.6 | 1.6 | 0.00 | 0.00 | 0.00 | 62 | 1013.0 |
| 20260905114458 | 21 | 160 | 0.0 | 3.2 | 0.00 | 0.00 | 0.00 | 61 | 1013.0 |
| 20260905113956 | 21 | 6 | 1.6 | 3.2 | 0.00 | 0.00 | 0.00 | 62 | 1012.9 |
| 20260905113452 | 21 | 71 | 1.6 | 3.2 | 0.00 | 0.00 | 0.00 | 62 | 1012.9 |
| 20260905112947 | 21 | 0 | 0.0 | 1.6 | 0.00 | 0.00 | 0.00 | 62 | 1012.9 |
| 20260905112442 | 20 | 82 | 0.0 | 3.2 | 0.00 | 0.00 | 0.00 | 61 | 1012.9 |
| 20260905111938 | 21 | 354 | 0.0 | 1.6 | 0.00 | 0.00 | 0.00 | 61 | 1012.7 |
| 20260905111432 | 21 | 286 | 0.0 | 1.6 | 0.00 | 0.00 | 0.00 | 61 | 1012.6 |
| 20260905110932 | 21 | 90 | 0.0 | 3.2 | 0.00 | 0.00 | 0.00 | 61 | 1012.5 |
| 20260905110426 | 21 | 90 | 0.0 | 0.0 | 0.00 | 0.00 | 0.00 | 61 | 1012.6 |
| 20260905105920 | 22 | 90 | 0.0 | 0.0 | 0.00 | 0.00 | 0.00 | 61 | 1012.6 |
| 20260905105420 | 21 | 90 | 0.0 | 0.0 | 0.00 | 0.00 | 0.00 | 61 | 1012.5 |
| 20260905104919 | 22 | 345 | 0.0 | 0.0 | 0.00 | 0.00 | 0.00 | 60 | 1012.2 |
| 20260905104415 | 22 | 279 | 0.0 | 0.0 | 0.00 | 0.00 | 0.00 | 60 | 1012.4 |
| 20260905103910 | 22 | 23 | 0.0 | 0.0 | 0.00 | 0.00 | 0.00 | 60 | 1012.3 |
| 20260905103406 | 22 | 0 | 0.0 | 4.8 | 0.00 | 0.00 | 0.00 | 59 | 1012.2 |
| 20260905102901 | 22 | 20 | 0.0 | 1.6 | 0.00 | 0.00 | 0.00 | 59 | 1012.4 |
| 20260905102358 | 22 | 261 | 3.2 | 3.2 | 0.00 | 0.00 | 0.00 | 58 | 1012.3 |
| 20260905101852 | 22 | 23 | 0.0 | 3.2 | 0.00 | 0.00 | 0.00 | 57 | 1012.3 |
| 20260905101350 | 22 | 291 | 0.0 | 1.6 | 0.00 | 0.00 | 0.00 | 56 | 1012.3 |
| 20260905100844 | 22 | 294 | 0.0 | 3.2 | 0.00 | 0.00 | 0.00 | 56 | 1012.3 |
| 20260905100336 | 22 | 345 | 0.0 | 0.0 | 0.00 | 0.00 | 0.00 | 56 | 1012.2 |
| 20260905095835 | 22 | 345 | 0.0 | 1.6 | 0.00 | 0.00 | 0.00 | 56 | 1012.1 |
| 20260905095335 | 23 | 270 | 0.0 | 4.8 | 0.00 | 0.00 | 0.00 | 57 | 1012.2 |
| 20260905094829 | 22 | 352 | 0.0 | 1.6 | 0.00 | 0.00 | 0.00 | 57 | 1012.0 |
| 20260905094325 | 23 | 0 | 0.0 | 1.6 | 0.00 | 0.00 | 0.00 | 58 | 1012.2 |
| 20260905093824 | 23 | 352 | 0.0 | 0.0 | 0.00 | 0.00 | 0.00 | 57 | 1012.2 |
| 20260905093320 | 22 | 352 | 0.0 | 0.0 | 0.00 | 0.00 | 0.00 | 57 | 1012.2 |
| 20260905092816 | 23 | 7 | 0.0 | 3.2 | 0.00 | 0.00 | 0.00 | 57 | 1012.2 |
| 20260905092316 | 23 | 0 | 0.0 | 1.6 | 0.00 | 0.00 | 0.00 | 57 | 1011.9 |
| 20260905091811 | 23 | 29 | 0.0 | 1.6 | 0.00 | 0.00 | 0.00 | 57 | 1012.1 |
| 20260905091310 | 23 | 180 | 0.0 | 0.0 | 0.00 | 0.00 | 0.00 | 56 | 1012.1 |
| 20260905090809 | 23 | 180 | 0.0 | 1.6 | 0.00 | 0.00 | 0.00 | 56 | 1012.2 |
| 20260905090305 | 23 | 90 | 0.0 | 1.6 | 0.00 | 0.00 | 0.00 | 56 | 1012.1 |
| 20260905085805 | 23 | 0 | 1.6 | 3.2 | 0.00 | 0.00 | 0.00 | 55 | 1012.2 |
| 20260905085306 | 23 | 66 | 0.0 | 1.6 | 0.00 | 0.00 | 0.00 | 54 | 1011.9 |
| 20260905084800 | 23 | 84 | 0.0 | 4.8 | 0.00 | 0.00 | 0.00 | 55 | 1012.2 |
| 20260905084259 | 24 | 84 | 0.0 | 4.8 | 0.00 | 0.00 | 0.00 | 54 | 1011.9 |
| 20260905083754 | 25 | 0 | 0.0 | 1.6 | 0.00 | 0.00 | 0.00 | 53 | 1011.8 |
| 20260905083250 | 25 | 315 | 0.0 | 4.8 | 0.00 | 0.00 | 0.00 | 53 | 1011.5 |
| 20260905082745 | 25 | 355 | 0.0 | 3.2 | 0.00 | 0.00 | 0.00 | 52 | 1011.8 |
| 20260905082241 | 25 | 26 | 0.0 | 1.6 | 0.00 | 0.00 | 0.00 | 53 | 1011.8 |
| 20260905081735 | 25 | 0 | 0.0 | 0.0 | 0.00 | 0.00 | 0.00 | 53 | 1011.8 |
| 20260905081231 | 25 | 188 | 0.0 | 1.6 | 0.00 | 0.00 | 0.00 | 54 | 1011.8 |
| 20260905080725 | 24 | 306 | 0.0 | 1.6 | 0.00 | 0.00 | 0.00 | 55 | 1012.2 |
| 20260905080225 | 24 | 8 | 3.2 | 4.8 | 0.00 | 0.00 | 0.00 | 57 | 1011.9 |
| 20260905075724 | 24 | 15 | 3.2 | 3.2 | 0.00 | 0.00 | 0.00 | 56 | 1012.0 |
| 20260905075223 | 25 | 90 | 0.0 | 1.6 | 0.00 | 0.00 | 0.00 | 53 | 1012.1 |
| 20260905074722 | 26 | 158 | 3.2 | 3.2 | 0.00 | 0.00 | 0.00 | 52 | 1011.9 |
| 20260905074218 | 26 | 225 | 3.2 | 4.8 | 0.00 | 0.00 | 0.00 | 52 | 1011.9 |
| 20260905073714 | 26 | 248 | 0.0 | 6.4 | 0.00 | 0.00 | 0.00 | 51 | 1012.1 |
| 20260905073209 | 26 | 220 | 3.2 | 4.8 | 0.00 | 0.00 | 0.00 | 52 | 1012.0 |
| 20260905072708 | 26 | 194 | 0.0 | 4.8 | 0.00 | 0.00 | 0.00 | 52 | 1012.2 |
| 20260905072204 | 26 | 279 | 0.0 | 1.6 | 0.00 | 0.00 | 0.00 | 53 | 1012.1 |
| 20260905071700 | 26 | 246 | 0.0 | 1.6 | 0.00 | 0.00 | 0.00 | 53 | 1012.2 |
| 20260905071156 | 26 | 195 | 1.6 | 4.8 | 0.00 | 0.00 | 0.00 | 53 | 1012.4 |
| 20260905070651 | 26 | 260 | 3.2 | 4.8 | 0.00 | 0.00 | 0.00 | 53 | 1012.1 |
| 20260905070147 | 26 | 257 | 3.2 | 4.8 | 0.00 | 0.00 | 0.00 | 53 | 1012.0 |
| 20260905065645 | 26 | 270 | 0.0 | 6.4 | 0.00 | 0.00 | 0.00 | 52 | 1012.3 |
| 20260905065139 | 26 | 250 | 4.8 | 4.8 | 0.00 | 0.00 | 0.00 | 51 | 1012.3 |
| 20260905064634 | 26 | 185 | 4.8 | 8.0 | 0.00 | 0.00 | 0.00 | 53 | 1012.2 |
| 20260905064125 | 26 | 212 | 3.2 | 3.2 | 0.00 | 0.00 | 0.00 | 53 | 1012.6 |
| 20260905063623 | 25 | 74 | 0.0 | 0.0 | 0.00 | 0.00 | 0.00 | 53 | 1012.3 |
| 20260905063120 | 26 | 114 | 0.0 | 3.2 | 0.00 | 0.00 | 0.00 | 53 | 1012.3 |
| 20260905062615 | 26 | 254 | 0.0 | 0.0 | 0.00 | 0.00 | 0.00 | 52 | 1012.4 |
| 20260905062114 | 26 | 206 | 0.0 | 3.2 | 0.00 | 0.00 | 0.00 | 52 | 1012.3 |
| 20260905061609 | 26 | 200 | 0.0 | 4.8 | 0.00 | 0.00 | 0.00 | 50 | 1012.1 |
| 20260905061109 | 27 | 183 | 4.8 | 6.4 | 0.00 | 0.00 | 0.00 | 46 | 1012.1 |
| 20260905060605 | 26 | 0 | 1.6 | 4.8 | 0.00 | 0.00 | 0.00 | 47 | 1012.3 |
| 20260905060101 | 26 | 6 | 4.8 | 4.8 | 0.00 | 0.00 | 0.00 | 48 | 1012.2 |
| 20260905055559 | 26 | 60 | 0.0 | 3.2 | 0.00 | 0.00 | 0.00 | 47 | 1012.3 |
| 20260905055054 | 26 | 0 | 0.0 | 1.6 | 0.00 | 0.00 | 0.00 | 46 | 1012.1 |
| 20260905054550 | 27 | 0 | 0.0 | 3.2 | 0.00 | 0.00 | 0.00 | 46 | 1011.8 |
| 20260905054045 | 26 | 0 | 3.2 | 6.4 | 0.00 | 0.00 | 0.00 | 47 | 1012.1 |
| 20260905053544 | 27 | 294 | 0.0 | 1.6 | 0.00 | 0.00 | 0.00 | 46 | 1011.9 |
| 20260905053040 | 27 | 0 | 0.0 | 0.0 | 0.00 | 0.00 | 0.00 | 47 | 1011.9 |
| 20260905052539 | 27 | 0 | 0.0 | 3.2 | 0.00 | 0.00 | 0.00 | 46 | 1011.9 |
| 20260905052034 | 28 | 241 | 0.0 | 3.2 | 0.00 | 0.00 | 0.00 | 45 | 1012.1 |
| 20260905051530 | 28 | 261 | 0.0 | 0.0 | 0.00 | 0.00 | 0.00 | 45 | 1011.8 |
| 20260905051027 | 28 | 195 | 0.0 | 0.0 | 0.00 | 0.00 | 0.00 | 44 | 1012.0 |
| 20260905050522 | 28 | 246 | 1.6 | 1.6 | 0.00 | 0.00 | 0.00 | 44 | 1012.0 |
| 20260905050019 | 28 | 270 | 0.0 | 0.0 | 0.00 | 0.00 | 0.00 | 44 | 1012.2 |
| 20260905045513 | 28 | 270 | 0.0 | 0.0 | 0.00 | 0.00 | 0.00 | 44 | 1011.9 |
| 20260905045008 | 28 | 270 | 0.0 | 0.0 | 0.00 | 0.00 | 0.00 | 44 | 1011.8 |